Time,TemperatureF,DewpointF,PressureIn,WindDirection,WindDirectionDegrees,WindSpeedMPH,WindSpeedGustMPH,Humidity,HourlyPrecipIn,Conditions,Clouds,dailyrainin,SoftwareType,DateUTC
2013-03-29 00:07:00,30.2,24.0,30.27,SSW,192,0.0,-999.0,78,-99.99,,,0.00,weatherlink.com 1.10,2013-03-29 05:07:00,
2013-03-29 00:22:00,29.7,24.0,30.27,SSW,192,0.0,-999.0,79,-99.99,,,0.00,weatherlink.com 1.10,2013-03-29 05:22:00,
2013-03-29 00:37:00,29.2,24.0,30.27,SSW,192,0.0,-999.0,80,-99.99,,,0.00,weatherlink.com 1.10,2013-03-29 05:37:00,
2013-03-29 00:52:00,28.9,24.0,30.27,SSW,192,0.0,-999.0,81,-99.99,,,0.00,weatherlink.com 1.10,2013-03-29 05:52:00,
2013-03-29 01:07:00,28.8,24.0,30.26,SSW,192,0.0,-999.0,82,-99.99,,,0.00,weatherlink.com 1.10,2013-03-29 06:07:00,
2013-03-29 01:22:00,29.0,24.0,30.26,SSW,192,0.0,-999.0,82,-99.99,,,0.00,weatherlink.com 1.10,2013-03-29 06:22:00,
2013-03-29 01:37:00,28.7,24.0,30.27,SSW,192,0.0,-999.0,82,-99.99,,,0.00,weatherlink.com 1.10,2013-03-29 06:37:00,
2013-03-29 01:52:00,28.3,24.0,30.27,SSW,192,0.0,-999.0,82,-99.99,,,0.00,weatherlink.com 1.10,2013-03-29 06:52:00,
2013-03-29 02:07:00,27.9,23.0,30.27,SSW,192,0.0,-999.0,83,-99.99,,,0.00,weatherlink.com 1.10,2013-03-29 07:07:00,
2013-03-29 02:22:00,27.6,23.0,30.27,SSW,192,0.0,-999.0,83,-99.99,,,0.00,weatherlink.com 1.10,2013-03-29 07:22:00,
2013-03-29 02:37:00,27.5,23.0,30.26,SSW,192,0.0,-999.0,84,-99.99,,,0.00,weatherlink.com 1.10,2013-03-29 07:37:00,
2013-03-29 02:52:00,27.1,23.0,30.26,SSW,192,0.0,-999.0,84,-99.99,,,0.00,weatherlink.com 1.10,2013-03-29 07:52:00,
2013-03-29 03:07:00,27.2,23.0,30.26,SSW,192,0.0,-999.0,84,-99.99,,,0.00,weatherlink.com 1.10,2013-03-29 08:07:00,
2013-03-29 03:22:00,27.4,24.0,30.26,SSW,192,0.0,-999.0,85,-99.99,,,0.00,weatherlink.com 1.10,2013-03-29 08:22:00,
2013-03-29 03:37:00,28.1,25.0,30.26,SSW,192,0.0,-999.0,86,-99.99,,,0.00,weatherlink.com 1.10,2013-03-29 08:37:00,
2013-03-29 03:52:00,28.8,25.0,30.26,SSW,192,0.0,-999.0,86,-99.99,,,0.00,weatherlink.com 1.10,2013-03-29 08:52:00,
2013-03-29 04:07:00,29.4,26.0,30.26,SSW,192,0.0,-999.0,86,-99.99,,,0.00,weatherlink.com 1.10,2013-03-29 09:07:00,
2013-03-29 04:22:00,29.6,26.0,30.25,SSW,192,0.0,-999.0,86,-99.99,,,0.00,weatherlink.com 1.10,2013-03-29 09:22:00,
2013-03-29 04:37:00,29.9,26.0,30.25,SSW,192,0.0,-999.0,86,-99.99,,,0.00,weatherlink.com 1.10,2013-03-29 09:37:00,
2013-03-29 04:52:00,30.1,26.0,30.24,SSW,192,0.0,-999.0,85,-99.99,,,0.00,weatherlink.com 1.10,2013-03-29 09:52:00,
2013-03-29 05:07:00,30.3,26.0,30.24,SSW,192,0.0,-999.0,85,-99.99,,,0.00,weatherlink.com 1.10,2013-03-29 10:07:00,
2013-03-29 05:22:00,30.4,26.0,30.24,SSW,192,0.0,-999.0,84,-99.99,,,0.00,weatherlink.com 1.10,2013-03-29 10:22:00,
2013-03-29 05:37:00,30.1,26.0,30.23,SSW,192,0.0,-999.0,83,-99.99,,,0.00,weatherlink.com 1.10,2013-03-29 10:37:00,
2013-03-29 05:52:00,30.0,25.0,30.23,SSW,192,0.0,-999.0,83,-99.99,,,0.00,weatherlink.com 1.10,2013-03-29 10:52:00,
2013-03-29 06:07:00,30.2,26.0,30.23,SSW,192,0.0,-999.0,83,-99.99,,,0.00,weatherlink.com 1.10,2013-03-29 11:07:00,
2013-03-29 06:22:00,30.5,26.0,30.24,SSW,192,0.0,-999.0,83,-99.99,,,0.00,weatherlink.com 1.10,2013-03-29 11:22:00,
2013-03-29 06:37:00,30.8,27.0,30.24,SSW,192,0.0,-999.0,84,-99.99,,,0.00,weatherlink.com 1.10,2013-03-29 11:37:00,
2013-03-29 07:07:00,32.0,27.0,30.24,SSW,192,0.0,-999.0,83,-99.99,,,0.00,weatherlink.com 1.10,2013-03-29 12:07:00,
2013-03-29 07:22:00,32.7,28.0,30.25,SSW,192,0.0,-999.0,82,-99.99,,,0.00,weatherlink.com 1.10,2013-03-29 12:22:00,
2013-03-29 07:37:00,33.2,28.0,30.24,SSW,192,0.0,-999.0,82,-99.99,,,0.00,weatherlink.com 1.10,2013-03-29 12:37:00,
2013-03-29 07:52:00,34.4,29.0,30.25,ESE,107,1.0,-999.0,80,-99.99,,,0.00,weatherlink.com 1.10,2013-03-29 12:52:00,
2013-03-29 08:07:00,35.6,29.0,30.24,East,86,0.0,-999.0,78,-99.99,,,0.00,weatherlink.com 1.10,2013-03-29 13:07:00,
2013-03-29 08:22:00,36.5,30.0,30.24,ESE,114,1.0,-999.0,76,-99.99,,,0.00,weatherlink.com 1.10,2013-03-29 13:22:00,
2013-03-29 08:37:00,37.3,30.0,30.24,ESE,109,2.0,-999.0,75,-99.99,,,0.00,weatherlink.com 1.10,2013-03-29 13:37:00,
2013-03-29 08:52:00,37.8,30.0,30.25,ESE,120,1.0,-999.0,73,-99.99,,,0.00,weatherlink.com 1.10,2013-03-29 13:52:00,
2013-03-29 09:07:00,38.6,30.0,30.24,SE,130,1.0,-999.0,72,-99.99,,,0.00,weatherlink.com 1.10,2013-03-29 14:07:00,
2013-03-29 09:22:00,39.3,31.0,30.25,East,88,1.0,-999.0,71,-99.99,,,0.00,weatherlink.com 1.10,2013-03-29 14:22:00,
2013-03-29 09:37:00,39.3,30.0,30.25,ESE,105,3.0,-999.0,70,-99.99,,,0.00,weatherlink.com 1.10,2013-03-29 14:37:00,
2013-03-29 09:52:00,39.1,32.0,30.24,ESE,107,3.0,-999.0,75,-99.99,,,0.01,weatherlink.com 1.10,2013-03-29 14:52:00,
2013-03-29 10:07:00,39.5,33.0,30.24,SE,136,2.0,-999.0,77,-99.99,,,0.01,weatherlink.com 1.10,2013-03-29 15:07:00,
2013-03-29 10:22:00,40.5,33.0,30.24,SSE,157,2.0,-999.0,74,-99.99,,,0.01,weatherlink.com 1.10,2013-03-29 15:22:00,
2013-03-29 10:38:00,41.3,32.0,30.24,SW,223,1.0,-999.0,70,-99.99,,,0.01,weatherlink.com 1.10,2013-03-29 15:38:00,
2013-03-29 10:53:00,41.9,32.0,30.24,East,92,0.0,-999.0,69,-99.99,,,0.01,weatherlink.com 1.10,2013-03-29 15:53:00,
2013-03-29 11:08:00,43.4,32.0,30.23,SE,142,4.0,-999.0,65,-99.99,,,0.01,weatherlink.com 1.10,2013-03-29 16:08:00,
2013-03-29 11:23:00,43.0,32.0,30.23,East,91,0.0,-999.0,65,-99.99,,,0.01,weatherlink.com 1.10,2013-03-29 16:23:00,
2013-03-29 11:38:00,43.6,32.0,30.22,ESE,117,1.0,-999.0,65,-99.99,,,0.01,weatherlink.com 1.10,2013-03-29 16:38:00,
2013-03-29 11:53:00,44.4,32.0,30.22,SSE,155,3.0,-999.0,63,-99.99,,,0.01,weatherlink.com 1.10,2013-03-29 16:53:00,
2013-03-29 12:08:00,44.6,33.0,30.22,East,80,3.0,-999.0,64,-99.99,,,0.01,weatherlink.com 1.10,2013-03-29 17:08:00,
2013-03-29 12:23:00,44.6,33.0,30.22,ESE,122,2.0,-999.0,64,-99.99,,,0.01,weatherlink.com 1.10,2013-03-29 17:23:00,
2013-03-29 12:38:00,43.9,33.0,30.22,SE,132,3.0,-999.0,65,-99.99,,,0.01,weatherlink.com 1.10,2013-03-29 17:38:00,
2013-03-29 12:53:00,43.6,32.0,30.22,South,186,1.0,-999.0,65,-99.99,,,0.01,weatherlink.com 1.10,2013-03-29 17:53:00,
2013-03-29 13:08:00,43.9,34.0,30.21,ESE,114,0.0,-999.0,67,-99.99,,,0.01,weatherlink.com 1.10,2013-03-29 18:08:00,
2013-03-29 13:23:00,45.5,34.0,30.21,SE,132,1.0,-999.0,64,-99.99,,,0.01,weatherlink.com 1.10,2013-03-29 18:23:00,
2013-03-29 13:38:00,47.1,35.0,30.20,East,101,3.0,-999.0,62,-99.99,,,0.01,weatherlink.com 1.10,2013-03-29 18:38:00,
2013-03-29 13:53:00,48.5,35.0,30.19,East,100,1.0,-999.0,59,-99.99,,,0.01,weatherlink.com 1.10,2013-03-29 18:53:00,
2013-03-29 14:08:00,48.8,34.0,30.19,SE,136,4.0,-999.0,58,-99.99,,,0.01,weatherlink.com 1.10,2013-03-29 19:08:00,
2013-03-29 14:23:00,48.2,34.0,30.18,East,92,2.0,-999.0,59,-99.99,,,0.01,weatherlink.com 1.10,2013-03-29 19:23:00,
2013-03-29 14:38:00,49.5,35.0,30.18,SW,233,1.0,-999.0,58,-99.99,,,0.01,weatherlink.com 1.10,2013-03-29 19:38:00,
2013-03-29 14:53:00,50.9,35.0,30.17,SE,136,0.0,-999.0,56,-99.99,,,0.01,weatherlink.com 1.10,2013-03-29 19:53:00,
2013-03-29 15:08:00,51.1,36.0,30.16,SE,126,2.0,-999.0,56,-99.99,,,0.01,weatherlink.com 1.10,2013-03-29 20:08:00,
2013-03-29 15:23:00,52.8,36.0,30.15,SE,134,5.0,-999.0,53,-99.99,,,0.01,weatherlink.com 1.10,2013-03-29 20:23:00,
2013-03-29 15:38:00,53.9,36.0,30.14,ENE,69,2.0,-999.0,51,-99.99,,,0.01,weatherlink.com 1.10,2013-03-29 20:38:00,
2013-03-29 15:54:00,52.1,36.0,30.14,SSE,152,0.0,-999.0,55,-99.99,,,0.01,weatherlink.com 1.10,2013-03-29 20:54:00,
2013-03-29 16:09:00,53.3,36.0,30.13,ESE,116,2.0,-999.0,52,-99.99,,,0.01,weatherlink.com 1.10,2013-03-29 21:09:00,
2013-03-29 16:24:00,54.3,36.0,30.12,ESE,108,3.0,-999.0,51,-99.99,,,0.01,weatherlink.com 1.10,2013-03-29 21:24:00,
2013-03-29 16:39:00,54.4,36.0,30.12,SSW,192,1.0,-999.0,51,-99.99,,,0.01,weatherlink.com 1.10,2013-03-29 21:39:00,
2013-03-29 16:54:00,52.7,36.0,30.11,WSW,257,3.0,-999.0,54,-99.99,,,0.01,weatherlink.com 1.10,2013-03-29 21:54:00,
2013-03-29 17:09:00,52.5,37.0,30.11,SW,230,0.0,-999.0,55,-99.99,,,0.01,weatherlink.com 1.10,2013-03-29 22:09:00,
2013-03-29 17:24:00,52.6,37.0,30.11,SSW,196,1.0,-999.0,56,-99.99,,,0.01,weatherlink.com 1.10,2013-03-29 22:24:00,
2013-03-29 17:39:00,52.2,37.0,30.10,East,91,1.0,-999.0,56,-99.99,,,0.01,weatherlink.com 1.10,2013-03-29 22:39:00,
2013-03-29 17:54:00,51.9,37.0,30.10,SE,128,1.0,-999.0,57,-99.99,,,0.01,weatherlink.com 1.10,2013-03-29 22:54:00,
2013-03-29 18:09:00,52.2,37.0,30.10,South,184,1.0,-999.0,56,-99.99,,,0.01,weatherlink.com 1.10,2013-03-29 23:09:00,
2013-03-29 18:24:00,51.3,36.0,30.10,SE,136,2.0,-999.0,57,-99.99,,,0.01,weatherlink.com 1.10,2013-03-29 23:24:00,
2013-03-29 18:39:00,49.9,36.0,30.10,SSE,149,0.0,-999.0,60,-99.99,,,0.01,weatherlink.com 1.10,2013-03-29 23:39:00,
2013-03-29 18:54:00,48.8,36.0,30.09,East,80,0.0,-999.0,61,-99.99,,,0.01,weatherlink.com 1.10,2013-03-29 23:54:00,
2013-03-29 19:09:00,47.7,36.0,30.09,ESE,120,1.0,-999.0,63,-99.99,,,0.01,weatherlink.com 1.10,2013-03-30 00:09:00,
2013-03-29 19:24:00,46.8,35.0,30.09,ESE,122,0.0,-999.0,65,-99.99,,,0.01,weatherlink.com 1.10,2013-03-30 00:24:00,
2013-03-29 19:39:00,45.8,35.0,30.09,ESE,122,3.0,-999.0,67,-99.99,,,0.01,weatherlink.com 1.10,2013-03-30 00:39:00,
2013-03-29 19:54:00,45.0,35.0,30.09,SE,132,2.0,-999.0,69,-99.99,,,0.01,weatherlink.com 1.10,2013-03-30 00:54:00,
2013-03-29 20:09:00,44.5,36.0,30.08,SE,130,0.0,-999.0,71,-99.99,,,0.01,weatherlink.com 1.10,2013-03-30 01:09:00,
2013-03-29 20:24:00,44.0,35.0,30.08,ESE,109,0.0,-999.0,72,-99.99,,,0.01,weatherlink.com 1.10,2013-03-30 01:24:00,
2013-03-29 20:39:00,43.5,35.0,30.08,ENE,72,0.0,-999.0,73,-99.99,,,0.01,weatherlink.com 1.10,2013-03-30 01:39:00,
2013-03-29 20:54:00,43.3,36.0,30.08,ESE,107,3.0,-999.0,75,-99.99,,,0.01,weatherlink.com 1.10,2013-03-30 01:54:00,
2013-03-29 21:09:00,43.2,36.0,30.08,ESE,111,2.0,-999.0,76,-99.99,,,0.01,weatherlink.com 1.10,2013-03-30 02:09:00,
2013-03-29 21:24:00,42.9,36.0,30.08,SE,146,0.0,-999.0,77,-99.99,,,0.01,weatherlink.com 1.10,2013-03-30 02:24:00,
2013-03-29 21:39:00,42.7,36.0,30.07,SSE,163,0.0,-999.0,78,-99.99,,,0.01,weatherlink.com 1.10,2013-03-30 02:39:00,
2013-03-29 21:54:00,42.5,36.0,30.07,East,101,1.0,-999.0,79,-99.99,,,0.01,weatherlink.com 1.10,2013-03-30 02:54:00,
2013-03-29 22:09:00,42.4,37.0,30.07,ESE,120,0.0,-999.0,80,-99.99,,,0.01,weatherlink.com 1.10,2013-03-30 03:09:00,
2013-03-29 22:24:00,42.4,37.0,30.07,SE,145,1.0,-999.0,80,-99.99,,,0.01,weatherlink.com 1.10,2013-03-30 03:24:00,
2013-03-29 22:39:00,42.3,37.0,30.06,ESE,119,1.0,-999.0,81,-99.99,,,0.01,weatherlink.com 1.10,2013-03-30 03:39:00,
2013-03-29 22:54:00,41.9,37.0,30.05,SE,130,2.0,-999.0,82,-99.99,,,0.01,weatherlink.com 1.10,2013-03-30 03:54:00,
2013-03-29 23:09:00,41.7,37.0,30.05,ESE,113,0.0,-999.0,83,-99.99,,,0.01,weatherlink.com 1.10,2013-03-30 04:09:00,
2013-03-29 23:24:00,41.6,37.0,30.04,SE,128,2.0,-999.0,84,-99.99,,,0.01,weatherlink.com 1.10,2013-03-30 04:24:00,
2013-03-29 23:39:00,41.5,37.0,30.03,SE,132,1.0,-999.0,85,-99.99,,,0.02,weatherlink.com 1.10,2013-03-30 04:39:00,
2013-03-29 23:54:00,41.5,38.0,30.02,ESE,114,0.0,-999.0,86,-99.99,,,0.02,weatherlink.com 1.10,2013-03-30 04:54:00,